Heron Island Observation History
Time Wind Speed Temp Pressure Rel. Hum Rain
29/09:00am E 9-15 kts n/a n/a n/a n/a
29/08:00am E 10-16 kts n/a n/a n/a n/a
29/07:00am E 9-13 kts n/a n/a n/a n/a
29/06:00am ESE 13-19 kts n/a n/a n/a n/a
29/05:00am E 11-19 kts n/a n/a n/a n/a
29/04:00am E 10-15 kts n/a n/a n/a n/a
29/03:00am E 11-16 kts n/a n/a n/a n/a
29/02:00am E 9-15 kts n/a n/a n/a n/a
29/01:00am E 9-15 kts n/a n/a n/a n/a
29/12:00am SE 9-12 kts n/a n/a n/a n/a
Time Wind Speed Temp Pressure Rel. Hum Rain
28/11:00pm ESE 11-16 kts n/a n/a n/a n/a
28/10:00pm E 11-16 kts n/a n/a n/a n/a
28/09:00pm E 11-17 kts n/a n/a n/a n/a
28/08:00pm ESE 14-18 kts n/a n/a n/a n/a
28/07:00pm ESE 14-20 kts n/a n/a n/a n/a
28/06:00pm SE 14-19 kts n/a n/a n/a n/a
28/05:00pm ESE 12-16 kts n/a n/a n/a n/a
28/04:00pm SE 16-21 kts n/a n/a n/a n/a
28/03:00pm E 14-20 kts n/a n/a n/a n/a
28/02:00pm E 13-20 kts n/a n/a n/a n/a
28/01:00pm ESE 11-15 kts n/a n/a n/a n/a
28/12:00pm E 11-16 kts n/a n/a n/a n/a
28/11:00am E 13-18 kts n/a n/a n/a n/a
28/10:00am ESE 11-17 kts n/a n/a n/a n/a
28/09:00am ESE 12-19 kts n/a n/a n/a n/a
28/08:00am ESE 12-18 kts n/a n/a n/a n/a
28/07:00am E 13-22 kts n/a n/a n/a n/a
28/06:00am E 12-20 kts n/a n/a n/a n/a
28/05:00am E 13-20 kts n/a n/a n/a n/a
28/04:00am E 10-15 kts n/a n/a n/a n/a
28/03:00am E 12-20 kts n/a n/a n/a n/a
28/02:00am ESE 14-20 kts n/a n/a n/a n/a
28/01:00am SE 13-19 kts n/a n/a n/a n/a
28/12:00am SE 18-24 kts n/a n/a n/a n/a
Time Wind Speed Temp Pressure Rel. Hum Rain
27/11:00pm SE 17-22 kts n/a n/a n/a n/a
27/10:00pm SE 14-20 kts n/a n/a n/a n/a
27/09:00pm SE 17-23 kts n/a n/a n/a n/a
27/08:00pm ESE 16-24 kts n/a n/a n/a n/a
27/07:00pm SE 16-23 kts n/a n/a n/a n/a
27/06:00pm ESE 16-24 kts n/a n/a n/a n/a
27/05:00pm SE 16-21 kts n/a n/a n/a n/a
27/04:00pm SE 18-26 kts n/a n/a n/a n/a
27/03:00pm SE 19-26 kts n/a n/a n/a n/a
27/02:00pm SE 20-26 kts n/a n/a n/a n/a
27/01:00pm SE 18-27 kts n/a n/a n/a n/a
27/12:00pm SE 18-23 kts n/a n/a n/a n/a
27/11:00am SE 16-22 kts n/a n/a n/a n/a